CZ-6A DEB, 54606

Orbit data source: Space-Track

CZ-6A DEB, 54606 is space debris in SSO originally from a launch on Fri, 11 Nov 2022 UTC launched from the Taiyaun Space Center, China (TSC). Debris objects in space refer to the collection of defunct objects orbiting the Earth. Examples of debris include non-operational satellites, rocket bodies, and fragments generated from explosions, collisions, or faulty payload assembly.

Loading next visibility...
Identifier
54606, 2022-151NG
Orbit
SSO
Country
Flag of CNCN / PRC
Related business
Manufacturer
SAST
Mission
Spacecraft
Bus & Motor
Unknown
Mass
Unknown
Launch date (UTC)
2022-11-11 (4 years ago)
Launch vehicle
Unknown
Launch site
Taiyaun Space Center, China (TSC)
Object type
Payload
Rocket body
Debris
Shape & HBR
Unknown shape, 0.1 m
Radar Cross Section
Medium (>0.1 m² and <1 m²)

Expand to show TLE details & history
Last TLE update: 2 days ago

TLE from 2 days ago
0 CZ-6A DEB
1 54606U 22151NG  26171.03065063  .00004867  00000-0  16887-2 0  9999
2 54606  98.7902 196.8730 0054978 306.2800  53.3313 14.35184813186353
Epoch: 2026-06-20T00:44Z
TLE epoch observation values (Epoch: 2026-06-20T00:44:08.214Z)
Latitude
-0.00001°
Longitude
-82.41235°
Altitude
754.037 km
Speed
7.49 km/s
True Right ascension
13h 07m 29s
True Declination
0° 00' 00"
Sunlit
Object was in daylight at epoch
Visualization orbit readout
Latitude
Unknown
Longitude
Unknown
Altitude
Unknown
Speed
Unknown
Apparent Right ascension
Unknown
Apparent Declination
Unknown
Sunlit
N/A
Visualization observer readout
Local Sidereal Time
21:46:03
Azimuth
Unknown
Elevation
Unknown
Doppler factor
Unknown
Orbital elements
Apogee altitude
810.902 km
Perigee altitude
732.287 km
Semi-major axis
7,149.731 km
Eccentricity
0.0055
Inclination
98.7902°
RAAN
196.873°
Arg. of periapsis
306.28°
True anomaly
53.8387°
Mean anomaly
53.3313°
Eccentric anomaly
53.58479°
Mean motion
3.59012 °/min
Orbital period
100.28 mins
BSTAR
0.0016887
Loading maneuver chart data...
Computing Atmospheric mass density...

Documentation

Showing up to 5 results
|